Theta_e
313 310 307 311 312 314 312 312 312 311 312 311 311 311 310 308 308 307 306 305 303 302 301 300 300 299 299 302 303 305 303 302 302 303 303 303 304 304 304 305 306 306 307 308
310 310 311 311 311 312 312 312 310 310 311 310 309 310 310 308 307 308 308 305 303 303 301 300 300 299 299 301 303 304 302 302 302 302 302 303 305 305 305 305 306 308 308 309
311 312 312 312 311 312 312 310 309 309 309 309 308 308 307 312 310 308 307 306 304 303 300 299 299 298 299 301 302 302 302 302 302 302 304 307 309 308 306 308 307 308 311 313
311 310 311 310 311 309 310 312 310 311 309 307 307 310 303 310 311 310 308 305 303 300 299 299 298 298 299 300 302 304 302 301 302 302 304 306 309 311 311 312 313 311 313 315
311 310 310 310 310 308 309 309 309 310 310 311 308 305 308 308 309 310 308 306 303 299 298 298 297 298 299 300 301 303 301 301 301 302 303 305 307 310 314 317 317 315 316 318
309 308 309 309 308 308 308 310 310 309 309 307 305 307 310 305 309 307 308 307 301 298 298 297 297 298 299 300 302 303 301 300 301 301 304 303 306 308 313 315 316 317 318 320
310 309 308 308 309 308 309 308 309 309 310 310 311 309 311 307 311 307 307 306 299 298 296 296 296 296 299 300 301 302 301 300 300 300 303 302 304 306 309 311 312 314 315 316
310 312 308 307 309 309 308 307 310 310 314 311 308 311 309 306 307 308 306 302 298 297 296 295 295 296 298 299 300 302 301 299 300 300 301 302 301 303 305 308 310 310 311 313
310 312 307 307 307 308 309 310 307 308 301 307 306 304 304 307 307 305 303 299 298 297 295 295 295 297 299 299 300 301 302 299 300 299 300 301 300 301 303 306 308 306 308 314
310 313 308 307 307 307 307 305 306 304 304 308 308 308 307 308 307 305 303 299 297 296 295 293 294 296 299 299 300 302 303 299 300 300 299 299 300 299 301 303 304 304 305 308
308 311 309 308 308 308 307 308 308 305 308 311 309 308 302 305 306 305 303 301 298 295 294 293 293 296 298 299 299 300 303 302 301 302 301 300 301 300 298 301 301 301 302 303
309 310 311 310 306 305 304 307 307 309 308 306 309 308 304 306 305 303 303 303 300 295 293 292 293 296 298 298 299 299 302 302 302 301 303 301 302 304 301 297 298 301 302 302
307 303 303 306 306 303 307 305 305 304 304 307 308 309 304 303 306 304 302 301 300 295 293 292 292 294 296 297 298 299 300 301 301 300 301 300 299 300 300 300 300 300 301 301
307 305 306 313 312 304 307 306 305 305 306 307 307 307 306 303 304 305 303 302 298 295 294 293 292 293 295 297 298 298 299 300 300 300 299 298 297 297 297 297 297 297 298 297
308 315 305 305 306 305 305 306 306 306 307 308 309 307 309 307 304 302 302 302 297 296 294 294 293 292 294 296 297 297 298 299 299 299 299 297 296 296 296 296 296 295 295 294
307 311 302 300 303 303 304 303 304 306 308 307 307 307 307 305 303 301 301 302 299 297 296 295 294 293 293 295 296 297 298 298 298 298 298 297 296 295 294 294 294 294 293 293
307 305 309 316 302 297 305 302 304 305 304 307 308 308 307 306 305 305 303 301 302 299 297 295 294 294 294 294 296 297 297 298 298 297 296 296 295 294 294 293 293 292 292 292
307 309 308 309 296 309 310 303 303 306 307 305 306 308 308 306 305 305 302 301 302 301 298 296 295 295 294 295 296 297 297 297 297 296 295 295 294 293 293 292 291 291 291 291
306 307 307 310 300 305 310 307 302 304 309 305 306 306 306 305 302 305 302 301 303 302 299 298 296 296 294 295 295 296 296 296 296 296 295 294 294 293 292 291 291 290 290 290
304 307 311 302 304 307 308 303 299 303 310 305 304 305 305 302 304 305 303 301 301 301 301 298 297 296 294 294 295 295 295 295 295 295 295 295 294 293 292 291 291 290 290 290
307 308 312 305 305 302 302 300 298 308 312 301 301 302 302 303 304 302 299 301 300 300 300 298 296 295 295 294 294 294 294 294 295 295 295 294 293 293 292 291 290 290 290 289
309 309 309 308 311 311 301 298 306 306 300 298 298 300 301 301 300 300 298 299 300 299 297 297 296 295 295 294 294 294 293 295 295 295 295 294 293 292 291 290 290 289 290 289
310 306 306 309 309 304 298 303 300 298 300 297 298 297 298 298 300 300 299 298 299 297 295 295 295 294 294 294 294 293 294 294 295 294 294 294 293 292 291 290 289 289 289 289
302 301 304 305 305 302 300 299 297 297 298 297 296 296 297 297 296 297 296 296 296 295 294 295 294 293 293 293 293 294 293 294 294 293 293 293 292 291 291 290 289 289 288 288
301 302 301 300 302 301 301 300 302 301 297 296 295 295 295 295 295 294 295 295 294 295 294 294 293 293 293 293 293 293 294 293 292 292 292 292 292 291 290 289 289 289 289 289
299 301 305 307 303 304 305 303 301 300 300 299 297 297 294 293 294 294 294 294 294 293 295 293 293 293 293 293 292 293 293 293 292 291 290 289 290 290 289 289 288 288 289 289
Wind_Speed
1 3 5 8 6 3 2 2 3 3 1 3 7 16 19 10 9 11 9 8 7 7 4 1 7 12 15 19 26 29 29 24 27 27 24 19 14 18 19 17 16 15 18 18
3 5 4 4 5 4 2 1 4 5 2 3 5 21 15 8 8 10 13 8 8 5 4 2 8 12 15 20 26 29 28 27 27 25 26 17 20 18 17 15 16 13 15 14
5 1 4 3 3 3 2 4 3 4 6 3 8 9 5 3 1 4 4 4 5 7 5 2 6 11 15 20 26 26 25 26 27 27 25 21 18 12 11 10 12 12 11 12
4 2 4 2 2 4 2 3 3 1 4 3 5 5 6 4 6 2 6 7 7 7 3 2 5 10 14 18 23 25 25 25 25 23 23 22 16 14 9 8 4 8 8 13
4 5 3 2 3 5 3 4 3 1 1 3 4 3 8 5 5 6 8 8 6 6 5 4 5 7 11 15 22 23 24 24 23 22 20 21 20 21 10 2 3 5 8 8
1 1 3 4 2 3 5 3 4 4 2 2 3 4 6 3 5 3 4 8 8 7 6 5 5 6 10 15 21 23 24 23 22 22 19 25 21 21 15 16 13 10 8 14
1 2 1 3 4 3 2 3 2 4 2 4 2 1 10 6 6 5 7 8 8 7 6 5 5 5 9 14 19 21 23 22 22 22 20 22 19 20 21 23 22 21 18 15
6 3 7 3 3 4 5 5 4 5 2 3 2 6 6 3 5 4 5 7 7 7 6 6 6 2 6 11 15 20 21 21 21 20 20 22 23 21 24 27 26 25 27 22
5 1 2 2 1 2 4 4 2 5 2 3 3 7 7 3 2 3 7 6 8 7 6 7 7 4 3 8 12 16 18 19 19 19 20 23 24 24 25 28 28 27 27 24
5 4 1 1 1 2 3 3 3 2 2 4 5 5 6 5 8 7 7 9 8 6 6 5 6 8 3 6 10 14 16 16 18 19 21 23 24 24 25 30 30 28 29 29
3 3 1 2 6 8 3 2 1 2 4 4 2 6 6 5 7 11 11 10 9 8 8 6 6 9 6 6 8 11 16 16 20 22 23 24 25 26 24 30 31 29 32 32
3 3 4 4 1 1 3 6 6 4 5 2 1 7 5 4 5 8 10 11 8 7 9 7 10 11 9 7 7 9 13 15 19 21 23 25 27 29 30 29 29 33 36 35
7 1 2 5 3 2 5 5 4 4 3 6 5 6 1 3 4 5 8 9 9 9 8 8 8 10 13 11 9 8 10 12 15 21 23 25 27 29 29 29 31 32 33 35
5 4 6 7 3 4 5 6 6 5 4 3 10 6 6 6 7 6 7 8 9 11 12 9 7 10 16 16 14 11 11 10 12 17 21 21 21 23 25 26 26 28 29 30
3 5 2 3 3 2 4 4 9 13 14 8 5 16 21 11 9 11 9 7 9 12 12 13 11 9 17 19 19 16 14 14 12 14 16 18 17 20 21 22 24 25 26 27
1 2 3 4 3 7 6 9 12 16 19 18 14 29 12 12 5 5 10 10 12 14 16 15 13 13 17 22 26 23 21 18 16 13 16 16 17 17 19 21 23 23 24 23
5 5 3 4 3 3 8 18 20 13 12 17 15 31 3 8 8 13 12 12 16 17 18 18 18 19 24 27 31 31 27 23 20 18 16 16 16 18 17 18 20 21 20 20
6 5 2 2 3 3 6 1 8 18 22 20 16 27 17 11 8 13 8 13 16 17 18 18 17 24 27 29 31 32 30 29 25 23 20 18 17 18 18 17 18 19 19 18
6 4 3 4 4 7 6 6 8 9 9 20 25 25 23 14 8 21 12 16 18 19 19 25 33 34 31 35 36 35 34 32 30 28 26 23 21 20 19 20 18 17 18 18
4 4 3 3 5 8 5 2 4 5 7 7 14 15 10 5 3 6 6 6 11 12 21 23 29 30 31 33 36 34 33 35 35 35 32 29 25 23 22 20 21 19 17 18
7 4 12 5 4 8 11 4 5 5 7 5 6 6 5 6 7 3 6 3 4 9 18 25 28 31 37 37 39 32 30 33 41 38 35 32 30 26 23 22 21 21 20 19
12 10 6 4 6 13 9 5 9 6 1 5 5 5 5 7 8 7 8 7 4 7 12 25 25 27 31 38 40 32 31 41 40 39 38 36 33 30 28 26 23 22 23 22
6 7 7 11 9 3 9 6 10 3 4 5 4 5 5 5 4 6 6 7 4 6 12 21 23 24 28 38 41 33 38 37 41 40 40 38 36 34 32 31 29 28 26 27
3 3 3 3 9 11 8 7 7 5 8 5 7 5 4 7 7 7 7 7 5 5 11 21 20 19 23 34 38 43 36 42 42 41 42 40 38 37 35 34 34 34 33 32
5 12 6 6 8 2 7 9 11 7 6 8 7 7 10 8 11 8 6 7 7 7 12 21 22 21 24 33 37 39 40 41 40 37 39 41 41 40 38 38 39 40 38 38
6 7 9 10 6 5 5 9 6 7 10 9 8 7 7 7 11 6 9 7 7 8 14 16 19 22 24 31 33 40 44 43 40 33 32 35 37 38 38 38 35 36 37 35
Wind_Direction
215 107 202 216 195 200 162 224 263 273 290 272 237 270 276 226 224 230 226 229 222 204 173 58 15 7 354 357 352 344 344 337 334 322 314 302 296 294 283 275 268 255 250 245
42 231 224 170 167 159 119 97 280 283 223 248 308 289 283 254 232 212 206 212 210 177 186 20 13 8 359 357 350 347 344 342 338 325 318 304 313 302 285 275 256 257 243 239
182 280 166 146 149 156 149 166 226 242 324 277 322 292 337 318 335 185 186 179 186 180 172 36 15 6 360 360 348 346 347 348 343 340 339 345 335 309 285 275 245 237 246 226
235 209 171 147 177 141 221 172 162 339 31 271 28 280 308 322 319 203 189 182 176 154 137 91 30 8 1 356 350 354 353 353 352 351 349 354 335 298 277 268 246 227 200 193
242 168 162 165 197 172 207 141 133 93 38 6 340 64 271 347 311 240 212 208 189 166 156 106 50 10 1 0 353 354 355 360 358 360 3 3 346 349 341 214 171 137 171 179
169 272 174 166 71 81 133 94 46 49 67 3 245 128 286 233 220 283 210 210 181 169 164 117 71 16 3 8 2 3 5 4 5 4 15 11 13 8 33 70 81 103 138 158
78 224 254 141 101 25 106 86 339 346 10 225 164 67 247 255 242 220 203 196 182 178 173 125 80 17 2 17 9 10 12 8 16 8 33 24 26 35 49 63 70 88 85 101
159 268 178 190 201 171 176 166 164 219 225 278 90 236 252 219 295 207 163 169 168 187 179 138 121 66 14 27 19 23 20 13 28 21 39 43 33 46 66 80 86 92 103 105
154 172 75 30 61 150 183 193 170 106 31 36 230 280 295 168 99 113 148 168 200 196 191 158 139 119 40 47 36 36 35 27 43 33 36 59 44 50 69 89 101 94 100 114
195 102 338 183 127 32 154 161 78 357 142 268 278 273 245 230 220 195 191 205 211 204 197 170 160 143 125 77 62 53 57 41 55 59 49 57 62 50 71 88 90 94 102 113
167 110 220 94 206 180 142 206 135 123 160 183 296 263 212 223 198 205 203 202 199 196 195 183 186 155 150 112 83 64 69 65 68 67 69 71 79 77 63 88 97 94 100 102
149 97 182 195 8 190 187 188 168 149 213 224 162 272 212 234 263 209 197 196 193 183 188 180 184 173 164 142 121 89 82 74 76 74 75 75 78 83 82 77 88 102 106 106
177 225 62 348 354 348 218 202 168 116 84 206 152 257 230 278 281 219 189 192 185 178 176 178 177 195 175 162 153 128 109 101 95 92 88 87 85 84 83 85 90 96 102 104
108 164 173 190 156 127 200 194 183 153 162 176 232 296 261 244 230 224 220 194 182 180 182 183 184 196 190 175 166 158 143 136 121 110 104 97 95 97 101 104 103 103 105 108
167 188 150 266 189 182 218 186 184 205 215 196 256 232 251 242 237 218 218 193 176 186 185 190 191 190 200 182 174 172 165 157 150 127 115 108 106 107 107 104 103 104 103 106
263 162 117 298 234 216 238 224 216 216 232 240 253 272 250 253 246 226 216 187 194 197 196 193 193 189 196 192 183 178 172 171 165 155 138 133 127 120 115 116 115 116 116 115
160 139 131 244 41 28 294 226 215 220 223 217 228 244 178 258 240 244 232 196 207 201 196 192 194 194 195 198 188 182 179 172 172 167 159 154 146 137 132 131 131 127 126 128
157 153 147 197 57 262 244 150 214 217 239 216 243 256 257 252 263 256 208 199 215 204 198 198 194 195 198 198 195 186 181 178 177 175 174 171 165 155 150 149 145 140 140 142
156 140 160 173 209 310 292 209 168 177 273 213 229 250 258 274 294 282 218 210 216 204 200 199 194 194 188 195 196 191 185 184 181 182 182 182 179 172 169 163 159 155 153 150
157 178 166 147 184 221 243 96 157 134 287 197 204 240 257 129 255 265 282 240 228 207 199 189 189 187 185 192 191 187 188 189 188 188 188 185 187 187 183 179 172 170 169 164
168 184 205 169 225 278 250 162 150 118 234 159 165 212 175 186 219 245 307 286 229 214 188 181 177 183 188 188 187 187 191 195 197 192 190 190 189 192 193 190 187 179 178 178
172 167 189 153 200 255 175 97 181 208 138 164 176 182 212 239 282 286 282 292 271 219 178 175 178 185 185 185 183 189 198 202 199 196 193 192 193 192 193 195 194 193 187 185
208 189 174 195 206 202 201 214 218 126 149 206 197 206 230 253 257 289 274 278 257 204 183 181 179 176 183 187 187 188 205 202 201 197 198 198 195 195 196 195 197 196 198 194
236 197 193 105 243 227 227 266 250 216 225 211 221 242 224 252 261 263 272 265 252 210 190 184 179 180 183 190 193 201 198 204 202 197 200 201 199 198 199 201 201 201 202 204
175 150 183 263 267 345 253 234 251 240 235 252 256 241 242 245 265 240 256 256 246 231 218 190 186 193 197 193 197 200 203 203 199 200 199 200 202 203 202 206 206 208 213 213
183 176 186 225 193 188 215 216 221 230 251 252 241 276 257 221 256 234 247 229 229 226 220 208 206 199 200 199 199 202 205 204 197 196 198 198 198 203 205 206 212 219 224 222